Visibility
15.0 15.0 14.0 15.0 15.0 15.0 15.0 15.0 15.0 15.0 15.0 15.0 15.0 15.0 15.0 15.0 15.0 15.0 14.1 15.0 15.0 15.0
15.0 15.0 15.0 15.0 15.0 15.0 15.0 15.0 15.0 15.0 15.0 15.0 15.0 15.0 15.0 15.0 15.0 15.0 15.0 15.0 15.0 11.0
14.3 15.0 15.0 15.0 15.0 15.0 15.0 15.0 15.0 15.0 15.0 15.0 15.0 15.0 15.0 15.0 15.0 9.3 13.4 15.0 15.0 10.8
14.4 15.0 15.0 12.1 15.0 15.0 15.0 15.0 15.0 14.6 15.0 15.0 15.0 15.0 15.0 15.0 15.0 12.7 15.0 11.7 13.5 14.9
5.2 15.0 9.9 11.0 3.1 15.0 15.0 15.0 15.0 15.0 15.0 15.0 15.0 15.0 15.0 15.0 15.0 15.0 15.0 15.0 1.7 0.8
15.0 15.0 15.0 14.2 6.5 15.0 10.1 15.0 14.8 15.0 8.8 0.2 0.3 0.2 0.4 5.3 0.7 1.2 13.3 12.8 15.0 10.3
15.0 15.0 6.0 6.1 15.0 4.3 5.4 9.1 15.0 15.0 15.0 15.0 15.0 15.0 15.0 15.0 15.0 15.0 15.0 11.6 13.5 15.0
15.0 15.0 15.0 15.0 9.8 15.0 12.7 13.8 5.0 13.1 15.0 15.0 15.0 15.0 15.0 15.0 15.0 15.0 15.0 15.0 15.0 15.0
15.0 15.0 12.3 15.0 15.0 0.6 4.6 14.8 15.0 15.0 15.0 12.4 6.7 0.0 0.0 0.1 0.5 15.0 15.0 15.0 14.9 15.0
15.0 15.0 15.0 15.0 15.0 3.2 0.3 11.5 15.0 15.0 15.0 15.0 15.0 0.0 0.0 0.0 0.2 2.9 0.4 0.2 0.1 0.1
15.0 15.0 15.0 15.0 15.0 15.0 7.0 0.3 2.0 0.9 8.9 15.0 14.0 0.0 0.0 0.0 0.1 1.1 0.3 0.1 0.5 0.2
15.0 15.0 15.0 15.0 15.0 15.0 15.0 14.8 10.2 2.7 0.5 6.2 14.2 0.0 0.0 0.0 0.1 0.1 0.0 0.1 0.1 0.2
15.0 15.0 15.0 15.0 15.0 15.0 15.0 1.7 15.0 13.9 0.1 0.2 0.1 0.1 0.0 0.1 0.1 0.1 0.1 0.1 0.1 0.2
15.0 15.0 15.0 15.0 15.0 15.0 15.0 15.0 5.7 6.6 5.7 0.9 0.9 0.2 0.1 0.1 0.1 0.1 0.1 0.1 0.1 0.1